Location: Emory University Observatory
(33.7903°N, 84.3267°W)
Time: 01:50:11
(UTC-04:00)

OTV 5 (USA 277) - Pass Details

Date: 16 October 2017
Orbit: 404 x 417 km, 43.0° (Epoch: 07 September)

Event Time Altitude Azimuth Distance (km) Brightness Sun altitude
Rises 19:26:43 0° 290° (WNW) 2,351 ? -5.9°
Reaches altitude 10° 19:29:20 10° 311° (NW) 1,489 ? -6.5°
Maximum altitude 19:31:40 17° 355° (N) 1,126 ? -7.0°
Drops below altitude 10° 19:34:00 10° 39° (NE) 1,490 ? -7.4°
Enters shadow 19:35:01 - 49° (NE) 1,792 ? -7.7°
